Wind_Speed
3 10 11 6 1 2 9 12 13 4 3 2 6 4 4 4 5 8 9 9 9 10 9 13 15 16 16 16 15 15 13 12 12 15 15 15 16 17 18 20 21 20 18 15
3 8 3 4 4 4 8 14 7 5 4 2 2 7 4 2 2 4 6 8 8 9 9 12 13 13 15 15 15 13 11 11 12 14 13 14 16 18 19 19 19 18 16 13
8 4 1 4 7 7 4 12 8 6 5 4 2 4 5 3 2 1 1 4 3 5 8 11 15 16 14 12 11 10 9 10 12 12 13 15 16 18 19 19 18 17 15 13
8 5 2 10 7 3 5 2 4 11 6 3 4 4 4 2 5 5 5 4 3 3 4 2 5 7 9 9 8 8 8 9 11 12 14 15 17 18 19 19 17 16 16 14
3 6 6 7 2 1 4 1 6 5 4 3 2 1 4 5 6 5 5 5 5 5 5 5 4 3 4 5 6 6 7 8 10 12 14 16 18 19 19 19 18 16 15 14
6 4 4 3 6 6 7 5 4 3 2 0 3 3 3 6 5 4 4 5 5 5 5 4 4 3 2 2 5 6 6 5 9 11 14 16 18 18 18 18 17 16 15 14
4 5 3 3 5 3 1 1 2 2 0 2 1 2 2 6 4 3 3 5 5 4 4 3 2 0 3 6 8 8 7 6 10 14 17 19 19 19 18 17 16 15 15 14
3 2 7 8 4 2 3 1 1 4 4 2 0 4 2 5 5 3 5 4 5 6 6 5 4 4 7 8 8 11 12 14 16 19 21 21 20 20 18 17 17 16 14 14
4 2 2 4 3 3 3 1 1 5 2 2 1 2 4 4 4 6 5 5 6 6 6 6 6 6 7 9 10 13 16 18 19 20 21 21 19 20 18 17 17 17 16 15
4 5 0 1 1 7 2 5 2 0 3 3 3 3 3 8 11 10 5 5 4 7 7 7 7 7 7 8 8 9 12 15 18 20 20 18 18 19 18 18 18 17 17 17
1 0 2 2 2 1 3 2 2 1 2 1 1 2 2 8 13 12 5 5 4 6 7 9 8 8 7 8 9 10 11 13 14 15 15 16 17 18 19 21 21 19 19 18
1 3 3 2 1 2 2 1 2 2 3 2 2 3 2 7 12 10 3 3 1 4 6 7 8 8 9 10 12 14 15 17 18 18 18 18 17 17 19 21 23 22 21 20
1 0 3 2 3 2 4 4 2 3 1 6 3 1 3 5 7 8 3 2 2 5 2 4 8 11 14 17 18 19 18 19 19 20 19 19 19 19 20 20 20 22 22 21
3 0 2 1 3 3 4 5 7 4 3 4 6 1 6 8 9 10 8 4 4 5 2 7 12 16 19 20 20 20 19 20 20 21 21 21 22 22 21 20 20 19 21 22
1 1 1 3 2 3 4 6 12 11 11 8 2 9 7 10 13 3 4 3 3 4 5 11 16 18 19 19 19 19 19 19 19 19 19 20 21 21 21 21 20 18 19 21
3 1 2 3 3 5 8 13 14 16 16 15 14 13 8 6 7 8 5 3 4 2 6 11 15 16 18 19 19 20 21 21 20 19 19 18 19 19 20 19 20 20 19 20
2 2 1 2 1 5 9 20 18 10 9 14 13 8 10 7 12 7 7 7 2 5 9 12 13 14 16 17 18 20 21 22 21 20 19 19 19 18 18 17 18 19 20 20
6 6 1 3 3 5 3 3 1 12 8 16 11 6 7 7 5 5 8 5 3 7 9 10 11 12 14 15 16 18 20 21 21 21 20 20 19 18 17 18 18 18 19 19
4 2 3 3 3 8 2 2 4 6 5 10 13 11 12 7 8 6 9 1 6 7 8 8 8 9 11 13 15 18 20 21 22 23 22 22 21 19 18 17 17 17 18 19
1 2 4 3 3 5 2 3 4 1 6 6 9 14 12 9 7 4 12 6 6 5 4 4 5 8 10 12 15 17 19 21 23 24 23 23 23 21 20 20 20 20 21 22
4 4 9 7 5 7 2 7 4 3 1 8 9 10 11 4 1 4 5 5 4 3 4 5 6 7 10 12 14 16 18 20 22 23 23 23 23 23 22 21 20 21 22 23
7 8 5 5 6 7 9 5 5 2 6 9 8 8 6 4 4 4 4 4 3 3 4 6 6 8 9 11 14 17 19 21 22 22 22 23 23 23 23 23 22 20 20 22
4 4 3 7 4 2 7 3 4 5 6 8 8 8 6 5 5 4 4 3 4 5 6 7 8 10 12 14 16 19 21 22 23 24 24 25 24 23 22 23 23 23 21 21
6 6 3 2 2 11 9 8 7 7 7 7 6 5 5 4 4 3 3 3 4 6 8 10 13 15 16 17 18 20 23 25 25 26 27 26 25 25 23 21 21 22 20 19
0 10 6 5 9 6 10 17 14 12 9 8 7 6 5 3 3 3 3 3 6 9 11 13 15 16 17 18 20 21 23 25 26 27 29 29 29 28 25 23 21 18 18 17
10 7 6 6 3 3 2 11 12 13 10 7 6 5 4 4 4 3 3 6 9 10 12 14 15 17 19 20 22 23 24 25 26 28 28 28 29 29 28 27 25 21 17 16
Wind_Direction
27 152 154 122 31 22 159 159 157 125 47 199 191 186 148 152 196 215 219 220 229 240 243 240 244 250 251 254 256 256 262 276 298 312 317 318 322 324 325 327 327 327 327 326
101 93 68 103 107 122 164 157 136 101 34 242 175 214 161 163 201 233 239 240 247 259 264 253 244 244 250 250 250 251 256 276 296 307 310 316 320 324 327 329 329 328 326 323
110 68 278 143 104 140 93 188 166 140 129 76 225 199 170 94 129 110 344 268 263 271 275 261 246 245 245 247 244 241 252 277 297 304 309 313 318 324 329 331 331 329 326 317
64 15 145 111 83 347 154 27 117 134 160 169 338 194 161 132 123 96 77 77 65 41 25 358 230 225 227 229 224 233 259 286 301 304 306 312 315 320 325 326 326 327 325 313
39 29 28 74 29 351 96 90 107 99 91 161 52 251 121 157 162 121 70 58 52 45 53 55 77 158 188 199 216 246 274 295 298 306 311 312 313 316 320 322 322 320 321 320
87 58 26 61 76 94 132 125 92 100 124 205 21 317 184 174 162 132 89 54 43 47 54 66 82 99 136 215 250 267 275 298 308 315 319 319 314 308 313 316 316 313 314 314
72 34 359 4 108 98 59 169 76 64 168 244 2 245 46 134 107 89 58 43 41 49 48 59 77 200 269 273 270 250 259 293 306 311 313 311 312 308 303 306 306 307 308 307
97 158 1 348 25 123 89 36 222 168 189 155 14 225 131 136 99 98 89 68 66 59 49 35 360 314 298 283 265 252 265 285 299 305 307 304 301 302 296 300 301 302 300 301
136 84 312 35 23 329 159 208 55 104 56 211 167 233 207 197 181 146 79 75 50 26 8 351 338 324 321 312 287 273 275 285 296 301 304 302 297 297 290 291 296 300 296 294
160 114 356 2 232 56 29 122 147 198 150 221 186 257 213 189 174 164 98 45 18 1 354 344 330 321 322 328 329 309 300 301 301 300 301 303 302 296 285 284 290 293 296 293
169 168 138 249 24 112 143 165 74 56 338 257 213 227 216 184 174 163 112 23 4 14 43 48 44 31 17 2 345 333 321 314 313 316 317 312 306 299 288 283 285 290 288 288
38 90 112 73 53 327 325 308 260 240 179 58 331 267 126 163 166 175 187 346 31 105 84 59 40 24 4 346 332 323 315 311 306 305 306 305 306 303 299 294 287 281 281 281
58 91 121 143 178 183 233 190 157 101 39 204 196 211 150 177 194 207 266 229 196 169 125 18 359 351 344 338 331 323 316 312 309 302 301 303 303 304 303 301 298 284 276 275
329 40 289 236 82 108 193 195 202 209 199 192 228 179 200 195 199 204 250 249 225 204 251 333 338 338 334 331 329 325 321 315 308 302 300 298 296 299 301 301 298 293 280 274
170 176 319 308 292 247 259 216 195 202 218 225 255 215 202 190 182 232 221 223 202 220 268 327 333 333 332 333 335 332 331 327 322 313 305 300 298 300 301 295 293 291 285 277
348 235 186 228 188 223 256 247 238 233 241 252 257 257 246 206 233 240 199 162 111 71 327 326 330 334 338 340 341 338 336 334 332 327 322 313 307 304 302 297 292 294 290 286
158 154 272 287 345 288 263 233 215 208 214 231 235 245 167 178 192 193 161 148 120 332 328 332 335 338 340 343 345 345 344 344 342 337 332 325 319 315 309 303 296 294 293 289
157 154 183 292 290 243 48 84 347 216 228 217 238 215 225 208 174 170 160 158 315 321 325 329 332 334 338 345 349 350 352 354 353 350 345 335 326 321 316 309 304 299 296 293
312 176 156 212 235 307 179 197 189 200 240 213 229 204 179 164 153 162 174 250 316 317 323 328 333 344 353 359 1 1 1 358 356 356 352 346 338 332 324 319 313 309 304 301
145 319 248 172 212 234 145 159 161 177 267 188 203 193 202 170 205 170 201 283 294 295 303 324 339 347 349 353 357 360 2 3 2 356 352 350 344 338 328 320 315 310 306 301
172 199 218 216 253 281 191 146 131 223 83 151 153 155 166 199 15 144 252 282 284 289 307 326 337 342 347 349 352 355 357 357 358 358 354 347 344 340 335 330 324 316 311 305
184 168 187 192 217 266 155 135 218 54 135 161 165 171 186 217 265 279 274 254 257 278 308 329 346 352 351 348 345 347 347 347 347 349 351 351 346 339 334 331 330 326 323 318
226 221 189 217 227 69 187 239 231 183 176 175 178 190 204 243 254 246 232 266 309 327 338 342 345 350 351 352 347 342 342 341 340 341 342 344 345 344 339 332 328 326 325 321
221 190 240 251 195 235 241 223 214 203 199 200 209 224 241 241 237 217 246 293 321 329 337 337 337 338 340 340 343 339 336 335 336 336 337 337 337 339 340 339 336 332 332 327
163 160 204 243 265 259 250 228 225 216 213 214 230 245 245 236 236 241 262 305 325 328 328 330 331 331 332 334 336 335 332 331 330 331 332 332 331 330 331 332 334 332 328 326
190 196 202 252 221 235 244 214 203 199 204 219 230 221 225 222 228 249 285 308 320 326 325 323 323 323 325 328 331 332 330 329 328 326 326 326 325 324 321 319 317 317 317 314
Height
1507 1502 1505 1516 1520 1519 1512 1512 1514 1530 1535 1530 1529 1531 1534 1539 1541 1542 1544 1545 1546 1546 1547 1547 1548 1548 1549 1549 1550 1550 1551 1550 1549 1547 1546 1544 1542 1539 1536 1533 1530 1527 1524 1522
1507 1512 1521 1522 1521 1519 1514 1514 1522 1534 1536 1532 1534 1528 1532 1538 1539 1540 1542 1543 1543 1544 1544 1544 1545 1545 1545 1546 1547 1548 1548 1548 1547 1545 1544 1542 1539 1536 1533 1530 1527 1524 1521 1519
1506 1523 1524 1521 1523 1520 1525 1513 1524 1521 1536 1540 1535 1527 1533 1539 1540 1540 1540 1540 1540 1540 1540 1540 1540 1541 1542 1543 1544 1545 1546 1545 1545 1543 1541 1539 1537 1534 1531 1527 1524 1521 1519 1518
1523 1527 1524 1521 1528 1530 1521 1535 1529 1530 1529 1532 1541 1526 1531 1536 1538 1539 1540 1540 1540 1539 1539 1538 1538 1539 1540 1541 1542 1543 1543 1542 1541 1540 1538 1536 1535 1532 1529 1526 1523 1520 1517 1515
1533 1529 1528 1525 1534 1535 1534 1537 1533 1534 1541 1538 1537 1538 1531 1536 1536 1537 1540 1540 1540 1539 1538 1538 1538 1538 1539 1539 1540 1541 1540 1540 1538 1537 1535 1533 1531 1529 1526 1523 1521 1518 1515 1513
1532 1536 1536 1536 1538 1536 1539 1535 1535 1538 1542 1536 1554 1548 1533 1530 1531 1537 1540 1541 1540 1540 1539 1538 1538 1538 1539 1539 1539 1539 1538 1537 1535 1534 1532 1530 1527 1525 1523 1520 1518 1516 1514 1511
1531 1538 1540 1541 1534 1537 1536 1531 1534 1537 1537 1530 1574 1555 1528 1535 1538 1540 1540 1541 1540 1540 1539 1539 1538 1539 1538 1538 1537 1536 1536 1535 1533 1531 1529 1526 1524 1521 1519 1517 1515 1513 1511 1509
1530 1544 1544 1543 1540 1534 1540 1540 1530 1531 1536 1528 1565 1534 1527 1537 1541 1541 1541 1541 1541 1540 1539 1538 1537 1537 1536 1535 1534 1534 1533 1531 1530 1527 1525 1522 1520 1517 1515 1514 1512 1510 1508 1506
1530 1541 1547 1545 1543 1543 1539 1537 1545 1548 1563 1536 1533 1531 1535 1539 1541 1542 1542 1541 1541 1540 1539 1537 1536 1535 1533 1532 1531 1530 1529 1527 1525 1523 1521 1518 1515 1513 1511 1510 1508 1506 1504 1503
1532 1539 1547 1545 1545 1544 1540 1545 1539 1541 1539 1531 1529 1534 1520 1536 1537 1540 1540 1540 1540 1539 1537 1536 1534 1533 1531 1530 1528 1527 1526 1524 1522 1519 1516 1513 1511 1508 1507 1506 1504 1503 1501 1499
1532 1527 1544 1544 1541 1539 1541 1539 1543 1539 1541 1525 1521 1517 1526 1531 1532 1536 1538 1539 1538 1537 1535 1534 1533 1532 1530 1529 1527 1525 1523 1521 1519 1515 1512 1509 1507 1505 1504 1502 1500 1498 1497 1496
1534 1529 1535 1540 1547 1547 1544 1540 1537 1530 1539 1550 1541 1524 1529 1530 1533 1535 1536 1536 1536 1536 1535 1534 1533 1531 1529 1527 1525 1523 1520 1518 1514 1511 1508 1506 1504 1501 1499 1497 1495 1493 1492 1491
1533 1530 1534 1536 1544 1547 1542 1541 1542 1543 1543 1539 1530 1520 1531 1532 1534 1535 1535 1535 1534 1534 1534 1533 1531 1529 1527 1524 1522 1519 1516 1512 1509 1506 1504 1502 1499 1497 1494 1492 1489 1488 1487 1486
1535 1532 1527 1520 1525 1531 1539 1538 1541 1539 1537 1525 1530 1525 1528 1529 1531 1533 1533 1532 1532 1532 1532 1531 1529 1526 1523 1520 1517 1514 1511 1507 1504 1502 1499 1497 1495 1492 1490 1488 1485 1483 1482 1481
1533 1531 1535 1533 1535 1536 1531 1531 1536 1543 1525 1523 1516 1524 1519 1524 1526 1529 1530 1530 1530 1530 1529 1528 1525 1523 1520 1517 1513 1509 1506 1503 1500 1497 1494 1492 1489 1486 1484 1482 1480 1479 1477 1475
1538 1533 1535 1534 1537 1537 1535 1530 1529 1530 1526 1525 1524 1523 1522 1524 1527 1527 1527 1527 1527 1527 1526 1525 1522 1519 1516 1513 1510 1506 1503 1499 1496 1492 1489 1486 1483 1481 1479 1477 1475 1473 1472 1470
1534 1535 1537 1526 1538 1535 1525 1511 1515 1516 1520 1519 1518 1513 1519 1520 1522 1523 1524 1524 1524 1523 1522 1520 1518 1516 1513 1511 1508 1504 1500 1496 1492 1488 1485 1481 1478 1476 1474 1472 1470 1468 1467 1465
1531 1531 1536 1529 1532 1524 1511 1515 1515 1514 1511 1513 1512 1515 1516 1517 1519 1520 1521 1521 1521 1520 1519 1517 1515 1514 1512 1509 1506 1502 1498 1494 1490 1485 1482 1478 1475 1472 1470 1468 1466 1463 1461 1459
1537 1531 1528 1528 1529 1510 1510 1515 1516 1514 1503 1507 1508 1511 1514 1515 1517 1518 1517 1518 1518 1517 1516 1515 1514 1512 1509 1507 1503 1500 1496 1492 1488 1484 1480 1476 1472 1469 1466 1464 1462 1459 1457 1455
1538 1536 1528 1537 1527 1510 1503 1510 1511 1513 1503 1505 1507 1508 1511 1514 1512 1511 1514 1515 1514 1514 1513 1513 1512 1510 1507 1504 1501 1497 1494 1490 1486 1482 1478 1474 1470 1466 1463 1460 1458 1455 1452 1450
1531 1532 1527 1525 1521 1506 1505 1510 1511 1506 1501 1504 1507 1509 1511 1512 1513 1513 1514 1514 1513 1513 1512 1511 1510 1508 1505 1502 1499 1495 1492 1489 1485 1481 1477 1473 1469 1464 1460 1457 1454 1450 1447 1444
1519 1521 1523 1525 1523 1515 1505 1510 1507 1502 1503 1505 1507 1509 1511 1512 1512 1513 1513 1512 1511 1510 1509 1508 1507 1505 1503 1500 1497 1493 1490 1486 1483 1479 1475 1471 1467 1462 1458 1454 1450 1447 1443 1440
1517 1510 1510 1509 1501 1501 1502 1502 1503 1504 1506 1505 1505 1506 1507 1509 1510 1509 1510 1511 1511 1509 1507 1505 1503 1502 1501 1498 1495 1491 1487 1483 1479 1475 1471 1467 1464 1459 1455 1451 1447 1443 1440 1436
1512 1512 1510 1508 1498 1500 1501 1501 1502 1503 1504 1505 1507 1506 1505 1506 1506 1506 1507 1508 1508 1507 1505 1503 1502 1499 1497 1495 1492 1488 1484 1480 1476 1472 1468 1464 1460 1456 1452 1448 1444 1439 1436 1433
1504 1508 1503 1501 1497 1498 1496 1495 1497 1499 1502 1503 1504 1504 1504 1504 1504 1505 1505 1505 1505 1504 1503 1501 1499 1496 1493 1490 1488 1485 1481 1477 1473 1468 1463 1459 1455 1451 1448 1445 1441 1438 1434 1431
1498 1494 1494 1487 1491 1491 1492 1492 1493 1495 1498 1500 1503 1503 1503 1502 1502 1503 1502 1501 1501 1500 1500 1498 1495 1493 1490 1486 1483 1481 1477 1474 1469 1465 1460 1455 1451 1447 1443 1439 1436 1435 1432 1429